START_TIME,STEP,MOV.,EG07,t_acc.,EG08,t_acc.,EG09,t_acc.,EB05,t_acc.,EBP05,t_acc.
1979-07-04 21:00:23.610 ,0,0,0.,1.2,0.,1.2,0.,1.2,,0.0,,0.0
1979-07-04 21:00:24.810 ,0,0,0.,1.2,0.,1.2,0.,1.2,,0.0,,0.0
1979-07-04 21:00:26.010 ,0,0,0.,1.2,0.,1.2,0.,1.2,,0.0,,0.0
1979-07-04 21:00:27.210 ,0,0,0.,1.2,0.,1.2,0.,1.2,,0.0,,0.0
1979-07-04 21:00:28.410 ,0,0,1.,1.2,0.,1.2,0.,1.2,,0.0,,0.0
1979-07-04 21:00:29.610 ,0,0,1.,1.2,0.,1.2,0.,1.2,,0.0,,0.0
1979-07-04 21:00:30.810 ,0,0,0.,1.2,0.,1.2,0.,1.2,,0.0,,0.0
1979-07-04 21:00:32.010 ,0,0,1.,1.2,1.,1.2,0.,1.2,,0.0,,0.0
1979-07-04 21:00:33.210 ,0,0,0.,1.2,0.,1.2,0.,1.2,,0.0,,0.0
1979-07-04 21:00:34.410 ,0,0,1.,1.2,0.,1.2,0.,1.2,,0.0,,0.0
1979-07-04 21:00:35.610 ,0,0,1.,1.2,0.,1.2,0.,1.2,,0.0,,0.0
1979-07-04 21:00:36.810 ,0,0,0.,1.2,0.,1.2,0.,1.2,,0.0,,0.0
1979-07-04 21:00:38.010 ,0,0,0.,1.2,0.,1.2,0.,1.2,,0.0,,0.0
1979-07-04 21:00:39.210 ,0,0,0.,1.2,0.,1.2,0.,1.2,,0.0,,0.0
1979-07-04 21:00:40.410 ,0,0,0.,1.2,0.,1.2,0.,1.2,,0.0,,0.0
1979-07-04 21:00:41.610 ,0,0,2.,1.2,1.,1.2,0.,1.2,,0.0,,0.0
1979-07-04 21:00:42.810 ,0,0,0.,1.2,0.,1.2,0.,1.2,,0.0,,0.0
1979-07-04 21:00:44.010 ,0,0,0.,1.2,0.,1.2,0.,1.2,,0.0,,0.0
1979-07-04 21:00:45.210 ,0,0,0.,1.2,0.,1.2,0.,1.2,,0.0,,0.0
1979-07-04 21:00:46.410 ,0,0,0.,1.2,0.,1.2,0.,1.2,,0.0,,0.0
1979-07-04 21:00:47.610 ,0,0,0.,1.2,0.,1.2,0.,1.2,,0.0,,0.0
1979-07-04 21:00:48.810 ,0,0,0.,1.2,0.,1.2,0.,1.2,,0.0,,0.0
1979-07-04 21:00:50.010 ,0,0,0.,1.2,0.,1.2,0.,1.2,,0.0,,0.0
1979-07-04 21:00:51.210 ,0,0,0.,1.2,0.,1.2,0.,1.2,,0.0,,0.0
1979-07-04 21:00:52.410 ,0,0,0.,1.2,0.,1.2,0.,1.2,,0.0,,0.0
1979-07-04 21:00:53.610 ,0,0,0.,1.2,0.,1.2,0.,1.2,,0.0,,0.0
1979-07-04 21:00:54.810 ,0,0,0.,1.2,0.,1.2,0.,1.2,,0.0,,0.0
1979-07-04 21:00:56.010 ,0,0,0.,1.2,0.,1.2,0.,1.2,,0.0,,0.0
1979-07-04 21:00:57.210 ,0,0,0.,1.2,0.,1.2,0.,1.2,,0.0,,0.0
1979-07-04 21:00:58.410 ,0,0,1.,1.2,0.,1.2,0.,1.2,,0.0,,0.0
1979-07-04 21:00:59.610 ,0,0,1.,1.2,1.,1.2,0.,1.2,,0.0,,0.0
1979-07-04 21:01:00.810 ,0,0,0.,1.2,0.,1.2,0.,1.2,,0.0,,0.0
1979-07-04 21:01:02.010 ,0,0,1.,1.2,0.,1.2,0.,1.2,,0.0,,0.0
1979-07-04 21:01:03.210 ,0,0,0.,1.2,0.,1.2,0.,1.2,,0.0,,0.0
1979-07-04 21:01:04.410 ,0,0,0.,1.2,0.,1.2,0.,1.2,,0.0,,0.0
1979-07-04 21:01:05.610 ,0,0,1.,1.2,0.,1.2,0.,1.2,,0.0,,0.0
1979-07-04 21:01:06.810 ,0,0,0.,1.2,0.,1.2,0.,1.2,,0.0,,0.0
1979-07-04 21:01:08.010 ,0,0,1.,1.2,1.,1.2,0.,1.2,,0.0,,0.0
1979-07-04 21:01:09.210 ,0,0,1.,1.2,0.,1.2,0.,1.2,,0.0,,0.0
1979-07-04 21:01:10.410 ,0,0,1.,1.2,1.,1.2,0.,1.2,,0.0,,0.0
1979-07-04 21:01:11.610 ,0,0,0.,1.2,0.,1.2,0.,1.2,,0.0,,0.0
1979-07-04 21:01:12.810 ,0,0,0.,1.2,0.,1.2,0.,1.2,,0.0,,0.0
1979-07-04 21:01:14.010 ,0,0,1.,1.2,0.,1.2,0.,1.2,,0.0,,0.0
1979-07-04 21:01:15.210 ,0,0,0.,1.2,0.,1.2,0.,1.2,,0.0,,0.0
1979-07-04 21:01:16.410 ,0,0,0.,1.2,0.,1.2,0.,1.2,,0.0,,0.0
1979-07-04 21:01:17.610 ,0,0,0.,1.2,0.,1.2,0.,1.2,,0.0,,0.0
1979-07-04 21:01:18.810 ,0,0,0.,1.2,0.,1.2,0.,1.2,,0.0,,0.0
1979-07-04 21:01:20.010 ,0,0,1.,1.2,0.,1.2,0.,1.2,,0.0,,0.0
1979-07-04 21:01:21.210 ,0,0,0.,1.2,0.,1.2,0.,1.2,,0.0,,0.0
1979-07-04 21:01:22.410 ,0,0,1.,1.2,0.,1.2,0.,1.2,,0.0,,0.0
1979-07-04 21:01:23.610 ,0,0,0.,1.2,0.,1.2,0.,1.2,,0.0,,0.0
1979-07-04 21:01:24.810 ,0,0,0.,1.2,0.,1.2,0.,1.2,,0.0,,0.0
1979-07-04 21:01:26.010 ,0,0,0.,1.2,0.,1.2,0.,1.2,,0.0,,0.0
1979-07-04 21:01:27.210 ,0,0,0.,1.2,0.,1.2,0.,1.2,,0.0,,0.0
1979-07-04 21:01:28.410 ,0,0,0.,1.2,0.,1.2,0.,1.2,,0.0,,0.0
1979-07-04 21:01:29.610 ,0,0,0.,1.2,0.,1.2,0.,1.2,,0.0,,0.0
1979-07-04 21:01:30.810 ,0,0,0.,1.2,0.,1.2,0.,1.2,,0.0,,0.0
1979-07-04 21:01:32.010 ,0,0,0.,1.2,0.,1.2,0.,1.2,,0.0,,0.0
1979-07-04 21:01:33.210 ,0,0,1.,1.2,0.,1.2,0.,1.2,,0.0,,0.0
1979-07-04 21:01:34.410 ,0,0,1.,1.2,0.,1.2,0.,1.2,,0.0,,0.0
1979-07-04 21:01:35.610 ,1,0,0.,1.2,0.,1.2,0.,1.2,,0.0,,0.0
1979-07-04 21:01:36.810 ,1,0,0.,1.2,0.,1.2,0.,1.2,,0.0,,0.0
1979-07-04 21:01:38.010 ,1,0,1.,1.2,1.,1.2,0.,1.2,,0.0,,0.0
1979-07-04 21:01:39.210 ,1,0,0.,1.2,0.,1.2,0.,1.2,,0.0,,0.0
1979-07-04 21:01:40.410 ,1,0,0.,1.2,0.,1.2,0.,1.2,,0.0,,0.0
1979-07-04 21:01:41.610 ,1,0,0.,1.2,0.,1.2,0.,1.2,,0.0,,0.0
1979-07-04 21:01:42.810 ,1,0,1.,1.2,1.,1.2,0.,1.2,,0.0,,0.0
1979-07-04 21:01:44.010 ,1,0,1.,1.2,0.,1.2,0.,1.2,,0.0,,0.0
1979-07-04 21:01:45.210 ,1,0,1.,1.2,1.,1.2,0.,1.2,,0.0,,0.0
1979-07-04 21:01:46.410 ,1,0,0.,1.2,0.,1.2,0.,1.2,,0.0,,0.0
1979-07-04 21:01:47.610 ,1,0,0.,1.2,0.,1.2,0.,1.2,,0.0,,0.0
1979-07-04 21:01:48.810 ,1,0,1.,1.2,1.,1.2,0.,1.2,,0.0,,0.0
1979-07-04 21:01:50.010 ,1,0,0.,1.2,0.,1.2,0.,1.2,,0.0,,0.0
1979-07-04 21:01:51.210 ,1,0,0.,1.2,0.,1.2,0.,1.2,,0.0,,0.0
1979-07-04 21:01:52.410 ,1,0,0.,1.2,0.,1.2,0.,1.2,,0.0,,0.0
1979-07-04 21:01:53.610 ,1,0,1.,1.2,1.,1.2,0.,1.2,,0.0,,0.0
1979-07-04 21:01:54.810 ,1,0,0.,1.2,0.,1.2,0.,1.2,,0.0,,0.0
1979-07-04 21:01:56.010 ,1,0,0.,1.2,0.,1.2,0.,1.2,,0.0,,0.0
1979-07-04 21:01:57.210 ,1,0,0.,1.2,0.,1.2,0.,1.2,,0.0,,0.0
1979-07-04 21:01:58.410 ,1,0,0.,1.2,0.,1.2,0.,1.2,,0.0,,0.0
1979-07-04 21:01:59.610 ,1,0,1.,1.2,0.,1.2,0.,1.2,,0.0,,0.0
1979-07-04 21:02:00.810 ,1,0,0.,1.2,0.,1.2,0.,1.2,,0.0,,0.0
1979-07-04 21:02:02.010 ,1,0,0.,1.2,0.,1.2,0.,1.2,,0.0,,0.0
1979-07-04 21:02:03.210 ,1,0,1.,1.2,1.,1.2,1.,1.2,,0.0,,0.0
1979-07-04 21:02:04.410 ,1,0,0.,1.2,0.,1.2,0.,1.2,,0.0,,0.0
1979-07-04 21:02:05.610 ,1,0,0.,1.2,0.,1.2,0.,1.2,,0.0,,0.0
1979-07-04 21:02:06.810 ,1,0,0.,1.2,0.,1.2,0.,1.2,,0.0,,0.0
1979-07-04 21:02:08.010 ,1,0,0.,1.2,0.,1.2,0.,1.2,,0.0,,0.0
1979-07-04 21:02:09.210 ,1,0,1.,1.2,1.,1.2,0.,1.2,,0.0,,0.0
1979-07-04 21:02:10.410 ,1,0,1.,1.2,1.,1.2,0.,1.2,,0.0,,0.0
1979-07-04 21:02:11.610 ,1,0,1.,1.2,0.,1.2,0.,1.2,,0.0,,0.0
1979-07-04 21:02:12.810 ,1,0,0.,1.2,0.,1.2,0.,1.2,,0.0,,0.0
1979-07-04 21:02:14.010 ,1,0,0.,1.2,0.,1.2,0.,1.2,,0.0,,0.0
1979-07-04 21:02:15.210 ,1,0,0.,1.2,0.,1.2,0.,1.2,,0.0,,0.0
1979-07-04 21:02:16.410 ,1,0,0.,1.2,0.,1.2,0.,1.2,,0.0,,0.0
1979-07-04 21:02:17.610 ,1,0,0.,1.2,0.,1.2,0.,1.2,,0.0,,0.0
1979-07-04 21:02:18.810 ,1,0,0.,1.2,0.,1.2,0.,1.2,,0.0,,0.0
1979-07-04 21:02:20.010 ,1,0,0.,1.2,0.,1.2,0.,1.2,,0.0,,0.0
1979-07-04 21:02:21.210 ,1,0,1.,1.2,1.,1.2,1.,1.2,,0.0,,0.0
1979-07-04 21:02:22.410 ,1,0,0.,1.2,0.,1.2,0.,1.2,,0.0,,0.0
1979-07-04 21:02:23.610 ,2,0,0.,1.2,0.,1.2,0.,1.2,,0.0,,0.0
1979-07-04 21:02:24.810 ,2,0,0.,1.2,0.,1.2,0.,1.2,,0.0,,0.0
1979-07-04 21:02:26.010 ,2,0,0.,1.2,0.,1.2,0.,1.2,,0.0,,0.0
1979-07-04 21:02:27.210 ,2,0,0.,1.2,0.,1.2,0.,1.2,,0.0,,0.0
1979-07-04 21:02:28.410 ,2,0,1.,1.2,0.,1.2,0.,1.2,,0.0,,0.0
1979-07-04 21:02:29.610 ,2,0,2.,1.2,0.,1.2,0.,1.2,,0.0,,0.0
1979-07-04 21:02:30.810 ,2,0,1.,1.2,0.,1.2,0.,1.2,,0.0,,0.0
1979-07-04 21:02:32.010 ,2,0,0.,1.2,0.,1.2,0.,1.2,,0.0,,0.0
1979-07-04 21:02:33.210 ,2,0,0.,1.2,0.,1.2,0.,1.2,,0.0,,0.0
1979-07-04 21:02:34.410 ,2,0,0.,1.2,0.,1.2,0.,1.2,,0.0,,0.0
1979-07-04 21:02:35.610 ,2,0,0.,1.2,0.,1.2,0.,1.2,,0.0,,0.0
1979-07-04 21:02:36.810 ,2,0,0.,1.2,0.,1.2,0.,1.2,,0.0,,0.0
1979-07-04 21:02:38.010 ,2,0,1.,1.2,0.,1.2,0.,1.2,,0.0,,0.0
1979-07-04 21:02:39.210 ,2,0,1.,1.2,1.,1.2,0.,1.2,,0.0,,0.0
1979-07-04 21:02:40.410 ,2,0,1.,1.2,0.,1.2,0.,1.2,,0.0,,0.0
1979-07-04 21:02:41.610 ,2,0,1.,1.2,0.,1.2,0.,1.2,,0.0,,0.0
1979-07-04 21:02:42.810 ,2,0,0.,1.2,0.,1.2,0.,1.2,,0.0,,0.0
1979-07-04 21:02:44.010 ,2,0,1.,1.2,0.,1.2,0.,1.2,,0.0,,0.0
1979-07-04 21:02:45.210 ,2,0,0.,1.2,0.,1.2,0.,1.2,,0.0,,0.0
1979-07-04 21:02:46.410 ,2,0,0.,1.2,0.,1.2,0.,1.2,,0.0,,0.0
1979-07-04 21:02:47.610 ,2,0,0.,1.2,0.,1.2,0.,1.2,,0.0,,0.0
1979-07-04 21:02:48.810 ,2,0,0.,1.2,0.,1.2,0.,1.2,,0.0,,0.0
1979-07-04 21:02:50.010 ,2,0,0.,1.2,0.,1.2,0.,1.2,,0.0,,0.0
1979-07-04 21:02:51.210 ,2,0,0.,1.2,0.,1.2,0.,1.2,,0.0,,0.0
1979-07-04 21:02:52.410 ,2,0,0.,1.2,0.,1.2,0.,1.2,,0.0,,0.0
1979-07-04 21:02:53.610 ,2,0,0.,1.2,0.,1.2,0.,1.2,,0.0,,0.0
1979-07-04 21:02:54.810 ,2,0,1.,1.2,0.,1.2,0.,1.2,,0.0,,0.0
1979-07-04 21:02:56.010 ,2,0,2.,1.2,0.,1.2,0.,1.2,,0.0,,0.0
1979-07-04 21:02:57.210 ,2,0,3.,1.2,0.,1.2,0.,1.2,,0.0,,0.0
1979-07-04 21:02:58.410 ,2,0,0.,1.2,0.,1.2,0.,1.2,,0.0,,0.0
1979-07-04 21:02:59.610 ,2,0,1.,1.2,0.,1.2,0.,1.2,,0.0,,0.0
1979-07-04 21:03:00.810 ,2,0,0.,1.2,0.,1.2,0.,1.2,,0.0,,0.0
1979-07-04 21:03:02.010 ,2,0,0.,1.2,0.,1.2,0.,1.2,,0.0,,0.0
1979-07-04 21:03:03.210 ,2,0,0.,1.2,0.,1.2,0.,1.2,,0.0,,0.0
1979-07-04 21:03:04.410 ,2,0,0.,1.2,0.,1.2,0.,1.2,,0.0,,0.0
1979-07-04 21:03:05.610 ,2,0,0.,1.2,0.,1.2,0.,1.2,,0.0,,0.0
1979-07-04 21:03:06.810 ,2,0,0.,1.2,0.,1.2,0.,1.2,,0.0,,0.0
1979-07-04 21:03:08.010 ,2,0,0.,1.2,0.,1.2,0.,1.2,,0.0,,0.0
1979-07-04 21:03:09.210 ,2,0,0.,1.2,0.,1.2,0.,1.2,,0.0,,0.0
1979-07-04 21:03:10.410 ,2,0,0.,1.2,0.,1.2,0.,1.2,,0.0,,0.0
1979-07-04 21:03:11.610 ,3,0,1.,1.2,1.,1.2,1.,1.2,,0.0,,0.0
1979-07-04 21:03:12.810 ,3,0,1.,1.2,1.,1.2,0.,1.2,,0.0,,0.0
1979-07-04 21:03:14.010 ,3,0,0.,1.2,0.,1.2,0.,1.2,,0.0,,0.0
1979-07-04 21:03:15.210 ,3,0,0.,1.2,0.,1.2,0.,1.2,,0.0,,0.0
1979-07-04 21:03:16.410 ,3,0,0.,1.2,0.,1.2,0.,1.2,,0.0,,0.0
1979-07-04 21:03:17.610 ,3,0,0.,1.2,0.,1.2,0.,1.2,,0.0,,0.0
1979-07-04 21:03:18.810 ,3,0,1.,1.2,0.,1.2,0.,1.2,,0.0,,0.0
1979-07-04 21:03:20.010 ,3,0,0.,1.2,0.,1.2,0.,1.2,,0.0,,0.0
1979-07-04 21:03:21.210 ,3,0,0.,1.2,0.,1.2,0.,1.2,,0.0,,0.0
1979-07-04 21:03:22.410 ,3,0,0.,1.2,0.,1.2,0.,1.2,,0.0,,0.0
1979-07-04 21:03:23.610 ,3,0,1.,1.2,1.,1.2,1.,1.2,,0.0,,0.0
1979-07-04 21:03:24.810 ,3,0,0.,1.2,0.,1.2,0.,1.2,,0.0,,0.0
1979-07-04 21:03:26.010 ,3,0,1.,1.2,0.,1.2,0.,1.2,,0.0,,0.0
1979-07-04 21:03:27.210 ,3,0,1.,1.2,0.,1.2,0.,1.2,,0.0,,0.0
1979-07-04 21:03:28.410 ,3,0,2.,1.2,1.,1.2,0.,1.2,,0.0,,0.0
1979-07-04 21:03:29.610 ,3,0,0.,1.2,0.,1.2,0.,1.2,,0.0,,0.0
1979-07-04 21:03:30.810 ,3,0,0.,1.2,0.,1.2,0.,1.2,,0.0,,0.0
1979-07-04 21:03:32.010 ,3,0,0.,1.2,0.,1.2,0.,1.2,,0.0,,0.0
1979-07-04 21:03:33.210 ,3,0,1.,1.2,0.,1.2,0.,1.2,,0.0,,0.0
1979-07-04 21:03:34.410 ,3,0,0.,1.2,0.,1.2,0.,1.2,,0.0,,0.0
1979-07-04 21:03:35.610 ,3,0,0.,1.2,0.,1.2,0.,1.2,,0.0,,0.0
1979-07-04 21:03:36.810 ,3,0,0.,1.2,0.,1.2,0.,1.2,,0.0,,0.0
1979-07-04 21:03:38.010 ,3,0,1.,1.2,0.,1.2,0.,1.2,,0.0,,0.0
1979-07-04 21:03:39.210 ,3,0,0.,1.2,0.,1.2,0.,1.2,,0.0,,0.0
1979-07-04 21:03:40.410 ,3,0,0.,1.2,0.,1.2,0.,1.2,,0.0,,0.0
1979-07-04 21:03:41.610 ,3,0,0.,1.2,0.,1.2,0.,1.2,,0.0,,0.0
1979-07-04 21:03:42.810 ,3,0,1.,1.2,0.,1.2,0.,1.2,,0.0,,0.0
1979-07-04 21:03:44.010 ,3,0,0.,1.2,0.,1.2,0.,1.2,,0.0,,0.0
1979-07-04 21:03:45.210 ,3,0,0.,1.2,0.,1.2,0.,1.2,,0.0,,0.0
1979-07-04 21:03:46.410 ,3,0,2.,1.2,0.,1.2,0.,1.2,,0.0,,0.0
1979-07-04 21:03:47.610 ,3,0,0.,1.2,0.,1.2,0.,1.2,,0.0,,0.0
1979-07-04 21:03:48.810 ,3,0,0.,1.2,0.,1.2,0.,1.2,,0.0,,0.0
1979-07-04 21:03:50.010 ,3,0,1.,1.2,0.,1.2,0.,1.2,,0.0,,0.0
1979-07-04 21:03:51.210 ,3,0,0.,1.2,0.,1.2,0.,1.2,,0.0,,0.0
1979-07-04 21:03:52.410 ,3,0,0.,1.2,0.,1.2,0.,1.2,,0.0,,0.0
1979-07-04 21:03:53.610 ,3,0,0.,1.2,0.,1.2,0.,1.2,,0.0,,0.0
1979-07-04 21:03:54.810 ,3,0,0.,1.2,0.,1.2,0.,1.2,,0.0,,0.0
1979-07-04 21:03:56.010 ,3,0,0.,1.2,0.,1.2,0.,1.2,,0.0,,0.0
1979-07-04 21:03:57.210 ,3,0,0.,1.2,0.,1.2,0.,1.2,,0.0,,0.0
1979-07-04 21:03:58.410 ,3,0,0.,1.2,0.,1.2,0.,1.2,,0.0,,0.0
1979-07-04 21:03:59.610 ,4,0,0.,1.2,0.,1.2,0.,1.2,,0.0,,0.0
1979-07-04 21:04:00.810 ,4,0,1.,1.2,0.,1.2,0.,1.2,,0.0,,0.0
1979-07-04 21:04:02.010 ,4,0,0.,1.2,0.,1.2,0.,1.2,,0.0,,0.0
1979-07-04 21:04:03.210 ,4,0,1.,1.2,0.,1.2,0.,1.2,,0.0,,0.0
1979-07-04 21:04:04.410 ,4,0,1.,1.2,0.,1.2,0.,1.2,,0.0,,0.0
1979-07-04 21:04:05.610 ,4,0,0.,1.2,0.,1.2,0.,1.2,,0.0,,0.0
1979-07-04 21:04:06.810 ,4,0,0.,1.2,0.,1.2,0.,1.2,,0.0,,0.0
1979-07-04 21:04:08.010 ,4,0,0.,1.2,0.,1.2,0.,1.2,,0.0,,0.0
1979-07-04 21:04:09.210 ,4,0,0.,1.2,0.,1.2,0.,1.2,,0.0,,0.0
1979-07-04 21:04:10.410 ,4,0,1.,1.2,0.,1.2,0.,1.2,,0.0,,0.0
1979-07-04 21:04:11.610 ,4,0,0.,1.2,0.,1.2,0.,1.2,,0.0,,0.0
1979-07-04 21:04:12.810 ,4,0,1.,1.2,0.,1.2,0.,1.2,,0.0,,0.0
1979-07-04 21:04:14.010 ,4,0,0.,1.2,0.,1.2,0.,1.2,,0.0,,0.0
1979-07-04 21:04:15.210 ,4,0,0.,1.2,0.,1.2,0.,1.2,,0.0,,0.0
1979-07-04 21:04:16.410 ,4,0,0.,1.2,0.,1.2,0.,1.2,,0.0,,0.0
1979-07-04 21:04:17.610 ,4,0,0.,1.2,0.,1.2,0.,1.2,,0.0,,0.0
1979-07-04 21:04:18.810 ,4,0,1.,1.2,1.,1.2,0.,1.2,,0.0,,0.0
1979-07-04 21:04:20.010 ,4,0,0.,1.2,0.,1.2,0.,1.2,,0.0,,0.0
1979-07-04 21:04:21.210 ,4,0,0.,1.2,0.,1.2,0.,1.2,,0.0,,0.0
1979-07-04 21:04:22.410 ,4,0,0.,1.2,0.,1.2,0.,1.2,,0.0,,0.0
1979-07-04 21:04:23.610 ,4,0,0.,1.2,0.,1.2,0.,1.2,,0.0,,0.0
1979-07-04 21:04:24.810 ,4,0,0.,1.2,0.,1.2,0.,1.2,,0.0,,0.0
1979-07-04 21:04:26.010 ,4,0,0.,1.2,0.,1.2,0.,1.2,,0.0,,0.0
1979-07-04 21:04:27.210 ,4,0,0.,1.2,0.,1.2,0.,1.2,,0.0,,0.0
1979-07-04 21:04:28.410 ,4,0,1.,1.2,0.,1.2,0.,1.2,,0.0,,0.0
1979-07-04 21:04:29.610 ,4,0,0.,1.2,0.,1.2,0.,1.2,,0.0,,0.0
1979-07-04 21:04:30.810 ,4,0,0.,1.2,0.,1.2,0.,1.2,,0.0,,0.0
1979-07-04 21:04:32.010 ,4,0,1.,1.2,0.,1.2,0.,1.2,,0.0,,0.0
1979-07-04 21:04:33.210 ,4,0,1.,1.2,0.,1.2,0.,1.2,,0.0,,0.0
1979-07-04 21:04:34.410 ,4,0,0.,1.2,0.,1.2,0.,1.2,,0.0,,0.0
1979-07-04 21:04:35.610 ,4,0,1.,1.2,0.,1.2,0.,1.2,,0.0,,0.0
1979-07-04 21:04:36.810 ,4,0,0.,1.2,0.,1.2,0.,1.2,,0.0,,0.0
1979-07-04 21:04:38.010 ,4,0,0.,1.2,0.,1.2,0.,1.2,,0.0,,0.0
1979-07-04 21:04:39.210 ,4,0,0.,1.2,0.,1.2,0.,1.2,,0.0,,0.0
1979-07-04 21:04:40.410 ,4,0,1.,1.2,0.,1.2,0.,1.2,,0.0,,0.0
1979-07-04 21:04:41.610 ,4,0,0.,1.2,0.,1.2,0.,1.2,,0.0,,0.0
1979-07-04 21:04:42.810 ,4,0,0.,1.2,0.,1.2,0.,1.2,,0.0,,0.0
1979-07-04 21:04:44.010 ,4,0,0.,1.2,0.,1.2,0.,1.2,,0.0,,0.0
1979-07-04 21:04:45.210 ,4,0,0.,1.2,0.,1.2,0.,1.2,,0.0,,0.0
1979-07-04 21:04:46.410 ,4,0,0.,1.2,0.,1.2,0.,1.2,,0.0,,0.0
1979-07-04 21:04:47.610 ,5,0,0.,1.2,0.,1.2,0.,1.2,,0.0,,0.0
1979-07-04 21:04:48.810 ,5,0,0.,1.2,0.,1.2,0.,1.2,,0.0,,0.0
1979-07-04 21:04:50.010 ,5,0,2.,1.2,0.,1.2,0.,1.2,,0.0,,0.0
1979-07-04 21:04:51.210 ,5,0,0.,1.2,0.,1.2,0.,1.2,,0.0,,0.0
1979-07-04 21:04:52.410 ,5,0,1.,1.2,0.,1.2,0.,1.2,,0.0,,0.0
1979-07-04 21:04:53.610 ,5,0,0.,1.2,0.,1.2,0.,1.2,,0.0,,0.0
1979-07-04 21:04:54.810 ,5,0,0.,1.2,0.,1.2,0.,1.2,,0.0,,0.0
1979-07-04 21:04:56.010 ,5,0,0.,1.2,0.,1.2,0.,1.2,,0.0,,0.0
1979-07-04 21:04:57.210 ,5,0,1.,1.2,0.,1.2,0.,1.2,,0.0,,0.0
1979-07-04 21:04:58.410 ,5,0,0.,1.2,0.,1.2,0.,1.2,,0.0,,0.0
1979-07-04 21:04:59.610 ,5,0,2.,1.2,1.,1.2,0.,1.2,,0.0,,0.0
1979-07-04 21:05:00.810 ,5,0,0.,1.2,0.,1.2,0.,1.2,,0.0,,0.0
1979-07-04 21:05:02.010 ,5,0,0.,1.2,0.,1.2,0.,1.2,,0.0,,0.0
1979-07-04 21:05:03.210 ,5,0,0.,1.2,0.,1.2,0.,1.2,,0.0,,0.0
1979-07-04 21:05:04.410 ,5,0,0.,1.2,0.,1.2,0.,1.2,,0.0,,0.0
1979-07-04 21:05:05.610 ,5,0,0.,1.2,0.,1.2,0.,1.2,,0.0,,0.0
1979-07-04 21:05:06.810 ,5,0,0.,1.2,0.,1.2,0.,1.2,,0.0,,0.0
1979-07-04 21:05:08.010 ,5,0,0.,1.2,0.,1.2,0.,1.2,,0.0,,0.0
1979-07-04 21:05:09.210 ,5,0,0.,1.2,0.,1.2,0.,1.2,,0.0,,0.0
1979-07-04 21:05:10.410 ,5,0,0.,1.2,0.,1.2,0.,1.2,,0.0,,0.0
1979-07-04 21:05:11.610 ,5,0,0.,1.2,0.,1.2,0.,1.2,,0.0,,0.0
1979-07-04 21:05:12.810 ,5,0,0.,1.2,0.,1.2,0.,1.2,,0.0,,0.0
1979-07-04 21:05:14.010 ,5,0,0.,1.2,0.,1.2,0.,1.2,,0.0,,0.0
1979-07-04 21:05:15.210 ,5,0,1.,1.2,0.,1.2,0.,1.2,,0.0,,0.0
1979-07-04 21:05:16.410 ,5,0,0.,1.2,0.,1.2,0.,1.2,,0.0,,0.0
1979-07-04 21:05:17.610 ,5,0,0.,1.2,0.,1.2,0.,1.2,,0.0,,0.0
1979-07-04 21:05:18.810 ,5,0,0.,1.2,0.,1.2,0.,1.2,,0.0,,0.0
1979-07-04 21:05:20.010 ,5,0,0.,1.2,0.,1.2,0.,1.2,,0.0,,0.0
1979-07-04 21:05:21.210 ,5,0,0.,1.2,0.,1.2,0.,1.2,,0.0,,0.0
1979-07-04 21:05:22.410 ,5,0,0.,1.2,0.,1.2,0.,1.2,,0.0,,0.0
1979-07-04 21:05:23.610 ,5,0,0.,1.2,0.,1.2,0.,1.2,,0.0,,0.0
1979-07-04 21:05:24.810 ,5,0,0.,1.2,0.,1.2,0.,1.2,,0.0,,0.0
1979-07-04 21:05:26.010 ,5,0,0.,1.2,0.,1.2,0.,1.2,,0.0,,0.0
1979-07-04 21:05:27.210 ,5,0,0.,1.2,0.,1.2,0.,1.2,,0.0,,0.0
1979-07-04 21:05:28.410 ,5,0,0.,1.2,0.,1.2,0.,1.2,,0.0,,0.0
1979-07-04 21:05:29.610 ,5,0,2.,1.2,0.,1.2,0.,1.2,,0.0,,0.0
1979-07-04 21:05:30.810 ,5,0,0.,1.2,0.,1.2,0.,1.2,,0.0,,0.0
1979-07-04 21:05:32.010 ,5,0,1.,1.2,0.,1.2,0.,1.2,,0.0,,0.0
1979-07-04 21:05:33.210 ,5,0,1.,1.2,0.,1.2,0.,1.2,,0.0,,0.0
1979-07-04 21:05:34.410 ,5,0,1.,1.2,1.,1.2,1.,1.2,,0.0,,0.0
1979-07-04 21:05:35.610 ,6,0,1.,1.2,0.,1.2,0.,1.2,,0.0,,0.0
1979-07-04 21:05:36.810 ,6,0,1.,1.2,0.,1.2,0.,1.2,,0.0,,0.0
1979-07-04 21:05:38.010 ,6,0,2.,1.2,1.,1.2,0.,1.2,,0.0,,0.0
1979-07-04 21:05:39.210 ,6,0,1.,1.2,0.,1.2,0.,1.2,,0.0,,0.0
1979-07-04 21:05:40.410 ,6,0,0.,1.2,0.,1.2,0.,1.2,,0.0,,0.0
1979-07-04 21:05:41.610 ,6,0,0.,1.2,0.,1.2,0.,1.2,,0.0,,0.0
1979-07-04 21:05:42.810 ,6,0,0.,1.2,0.,1.2,0.,1.2,,0.0,,0.0
1979-07-04 21:05:44.010 ,6,0,1.,1.2,0.,1.2,0.,1.2,,0.0,,0.0
1979-07-04 21:05:45.210 ,6,0,1.,1.2,0.,1.2,0.,1.2,,0.0,,0.0
1979-07-04 21:05:46.410 ,6,0,0.,1.2,0.,1.2,0.,1.2,,0.0,,0.0
1979-07-04 21:05:47.610 ,6,0,0.,1.2,0.,1.2,0.,1.2,,0.0,,0.0
1979-07-04 21:05:48.810 ,6,0,0.,1.2,0.,1.2,0.,1.2,,0.0,,0.0
1979-07-04 21:05:50.010 ,6,0,1.,1.2,0.,1.2,0.,1.2,,0.0,,0.0
1979-07-04 21:05:51.210 ,6,0,1.,1.2,1.,1.2,0.,1.2,,0.0,,0.0
1979-07-04 21:05:52.410 ,6,0,0.,1.2,0.,1.2,0.,1.2,,0.0,,0.0
1979-07-04 21:05:53.610 ,6,0,0.,1.2,0.,1.2,0.,1.2,,0.0,,0.0
1979-07-04 21:05:54.810 ,6,0,1.,1.2,0.,1.2,0.,1.2,,0.0,,0.0
1979-07-04 21:05:56.010 ,6,0,0.,1.2,0.,1.2,0.,1.2,,0.0,,0.0
1979-07-04 21:05:57.210 ,6,0,1.,1.2,1.,1.2,1.,1.2,,0.0,,0.0
1979-07-04 21:05:58.410 ,6,0,0.,1.2,0.,1.2,0.,1.2,,0.0,,0.0
1979-07-04 21:05:59.610 ,6,0,0.,1.2,0.,1.2,0.,1.2,,0.0,,0.0
1979-07-04 21:06:00.810 ,6,0,0.,1.2,0.,1.2,0.,1.2,,0.0,,0.0
1979-07-04 21:06:02.010 ,6,0,1.,1.2,1.,1.2,0.,1.2,,0.0,,0.0
1979-07-04 21:06:03.210 ,6,0,0.,1.2,0.,1.2,0.,1.2,,0.0,,0.0
1979-07-04 21:06:04.410 ,6,0,2.,1.2,1.,1.2,0.,1.2,,0.0,,0.0
1979-07-04 21:06:05.610 ,6,0,0.,1.2,0.,1.2,0.,1.2,,0.0,,0.0
1979-07-04 21:06:06.810 ,6,0,1.,1.2,0.,1.2,0.,1.2,,0.0,,0.0
1979-07-04 21:06:08.010 ,6,0,1.,1.2,0.,1.2,0.,1.2,,0.0,,0.0
1979-07-04 21:06:09.210 ,6,0,0.,1.2,0.,1.2,0.,1.2,,0.0,,0.0
1979-07-04 21:06:10.410 ,6,0,1.,1.2,0.,1.2,0.,1.2,,0.0,,0.0
1979-07-04 21:06:11.610 ,6,0,1.,1.2,0.,1.2,0.,1.2,,0.0,,0.0
1979-07-04 21:06:12.810 ,6,0,0.,1.2,0.,1.2,0.,1.2,,0.0,,0.0
1979-07-04 21:06:14.010 ,6,0,0.,1.2,0.,1.2,0.,1.2,,0.0,,0.0
1979-07-04 21:06:15.210 ,6,0,1.,1.2,0.,1.2,0.,1.2,,0.0,,0.0
1979-07-04 21:06:16.410 ,6,0,0.,1.2,0.,1.2,0.,1.2,,0.0,,0.0
1979-07-04 21:06:17.610 ,6,0,0.,1.2,0.,1.2,0.,1.2,,0.0,,0.0
1979-07-04 21:06:18.810 ,6,0,1.,1.2,0.,1.2,0.,1.2,,0.0,,0.0
1979-07-04 21:06:20.010 ,6,0,0.,1.2,0.,1.2,0.,1.2,,0.0,,0.0
1979-07-04 21:06:21.210 ,6,0,0.,1.2,0.,1.2,0.,1.2,,0.0,,0.0
1979-07-04 21:06:22.410 ,6,0,0.,1.2,0.,1.2,0.,1.2,,0.0,,0.0
1979-07-04 21:06:23.610 ,7,0,1.,1.2,1.,1.2,0.,1.2,,0.0,,0.0
1979-07-04 21:06:24.810 ,7,0,0.,1.2,0.,1.2,0.,1.2,,0.0,,0.0
1979-07-04 21:06:26.010 ,7,0,0.,1.2,0.,1.2,0.,1.2,,0.0,,0.0
1979-07-04 21:06:27.210 ,7,0,0.,1.2,0.,1.2,0.,1.2,,0.0,,0.0
1979-07-04 21:06:28.410 ,7,0,0.,1.2,0.,1.2,0.,1.2,,0.0,,0.0
1979-07-04 21:06:29.610 ,7,0,0.,1.2,0.,1.2,0.,1.2,,0.0,,0.0
1979-07-04 21:06:30.810 ,7,0,0.,1.2,0.,1.2,0.,1.2,,0.0,,0.0
1979-07-04 21:06:32.010 ,7,0,0.,1.2,0.,1.2,0.,1.2,,0.0,,0.0
1979-07-04 21:06:33.210 ,7,0,0.,1.2,0.,1.2,0.,1.2,,0.0,,0.0
1979-07-04 21:06:34.410 ,7,0,0.,1.2,0.,1.2,0.,1.2,,0.0,,0.0
1979-07-04 21:06:35.610 ,7,0,0.,1.2,0.,1.2,0.,1.2,,0.0,,0.0
1979-07-04 21:06:36.810 ,7,0,0.,1.2,0.,1.2,0.,1.2,,0.0,,0.0
1979-07-04 21:06:38.010 ,7,0,0.,1.2,0.,1.2,0.,1.2,,0.0,,0.0
1979-07-04 21:06:39.210 ,7,0,0.,1.2,0.,1.2,0.,1.2,,0.0,,0.0
1979-07-04 21:06:40.410 ,7,0,1.,1.2,0.,1.2,0.,1.2,,0.0,,0.0
1979-07-04 21:06:41.610 ,7,0,0.,1.2,0.,1.2,0.,1.2,,0.0,,0.0
1979-07-04 21:06:42.810 ,7,0,1.,1.2,1.,1.2,0.,1.2,,0.0,,0.0
1979-07-04 21:06:44.010 ,7,0,0.,1.2,0.,1.2,0.,1.2,,0.0,,0.0
1979-07-04 21:06:45.210 ,7,0,0.,1.2,0.,1.2,0.,1.2,,0.0,,0.0
1979-07-04 21:06:46.410 ,7,0,1.,1.2,0.,1.2,0.,1.2,,0.0,,0.0
1979-07-04 21:06:47.610 ,7,0,0.,1.2,0.,1.2,0.,1.2,,0.0,,0.0
1979-07-04 21:06:48.810 ,7,0,0.,1.2,0.,1.2,0.,1.2,,0.0,,0.0
1979-07-04 21:06:50.010 ,7,0,0.,1.2,0.,1.2,0.,1.2,,0.0,,0.0
1979-07-04 21:06:51.210 ,7,0,0.,1.2,0.,1.2,0.,1.2,,0.0,,0.0
1979-07-04 21:06:52.410 ,7,0,1.,1.2,1.,1.2,0.,1.2,,0.0,,0.0
1979-07-04 21:06:53.610 ,7,0,0.,1.2,0.,1.2,0.,1.2,,0.0,,0.0
1979-07-04 21:06:54.810 ,7,0,0.,1.2,0.,1.2,0.,1.2,,0.0,,0.0
1979-07-04 21:06:56.010 ,7,0,0.,1.2,0.,1.2,0.,1.2,,0.0,,0.0
1979-07-04 21:06:57.210 ,7,0,0.,1.2,0.,1.2,0.,1.2,,0.0,,0.0
1979-07-04 21:06:58.410 ,7,0,1.,1.2,0.,1.2,0.,1.2,,0.0,,0.0
1979-07-04 21:06:59.610 ,7,0,0.,1.2,0.,1.2,0.,1.2,,0.0,,0.0
1979-07-04 21:07:00.810 ,7,0,1.,1.2,1.,1.2,0.,1.2,,0.0,,0.0
1979-07-04 21:07:02.010 ,7,0,0.,1.2,0.,1.2,0.,1.2,,0.0,,0.0
1979-07-04 21:07:03.210 ,7,0,0.,1.2,0.,1.2,0.,1.2,,0.0,,0.0
1979-07-04 21:07:04.410 ,7,0,0.,1.2,0.,1.2,0.,1.2,,0.0,,0.0
1979-07-04 21:07:05.610 ,7,0,1.,1.2,1.,1.2,0.,1.2,,0.0,,0.0
1979-07-04 21:07:06.810 ,7,0,0.,1.2,0.,1.2,0.,1.2,,0.0,,0.0
1979-07-04 21:07:08.010 ,7,0,0.,1.2,0.,1.2,0.,1.2,,0.0,,0.0
1979-07-04 21:07:09.210 ,7,0,1.,1.2,0.,1.2,0.,1.2,,0.0,,0.0
1979-07-04 21:07:10.410 ,7,0,0.,1.2,0.,1.2,0.,1.2,,0.0,,0.0
1979-07-04 21:07:11.610 ,3,0,2.,1.2,0.,1.2,0.,1.2,,0.0,,0.0
1979-07-04 21:07:12.810 ,3,0,2.,1.2,0.,1.2,0.,1.2,,0.0,,0.0
1979-07-04 21:07:14.010 ,3,0,0.,1.2,0.,1.2,0.,1.2,,0.0,,0.0
1979-07-04 21:07:15.210 ,3,0,0.,1.2,0.,1.2,0.,1.2,,0.0,,0.0
1979-07-04 21:07:16.410 ,3,0,1.,1.2,0.,1.2,0.,1.2,,0.0,,0.0
1979-07-04 21:07:17.610 ,3,0,1.,1.2,0.,1.2,0.,1.2,,0.0,,0.0
1979-07-04 21:07:18.810 ,3,0,0.,1.2,0.,1.2,0.,1.2,,0.0,,0.0
1979-07-04 21:07:20.010 ,3,0,0.,1.2,0.,1.2,0.,1.2,,0.0,,0.0
1979-07-04 21:07:21.210 ,3,0,0.,1.2,0.,1.2,0.,1.2,,0.0,,0.0
1979-07-04 21:07:22.410 ,3,0,0.,1.2,0.,1.2,0.,1.2,,0.0,,0.0
1979-07-04 21:07:23.610 ,3,0,1.,1.2,1.,1.2,0.,1.2,,0.0,,0.0
1979-07-04 21:07:24.810 ,3,0,0.,1.2,0.,1.2,0.,1.2,,0.0,,0.0
1979-07-04 21:07:26.010 ,3,0,0.,1.2,0.,1.2,0.,1.2,,0.0,,0.0
1979-07-04 21:07:27.210 ,3,0,0.,1.2,0.,1.2,0.,1.2,,0.0,,0.0
1979-07-04 21:07:28.410 ,3,0,0.,1.2,0.,1.2,0.,1.2,,0.0,,0.0
1979-07-04 21:07:29.610 ,3,0,0.,1.2,0.,1.2,0.,1.2,,0.0,,0.0
1979-07-04 21:07:30.810 ,3,0,1.,1.2,0.,1.2,0.,1.2,,0.0,,0.0
1979-07-04 21:07:32.010 ,3,0,0.,1.2,0.,1.2,0.,1.2,,0.0,,0.0
1979-07-04 21:07:33.210 ,3,0,0.,1.2,0.,1.2,0.,1.2,,0.0,,0.0
1979-07-04 21:07:34.410 ,3,0,0.,1.2,0.,1.2,0.,1.2,,0.0,,0.0
1979-07-04 21:07:35.610 ,0,0,2.,1.2,1.,1.2,1.,1.2,,0.0,,0.0
1979-07-04 21:07:36.810 ,0,0,0.,1.2,0.,1.2,0.,1.2,,0.0,,0.0
1979-07-04 21:07:38.010 ,0,0,0.,1.2,0.,1.2,0.,1.2,,0.0,,0.0
1979-07-04 21:07:39.210 ,0,0,0.,1.2,0.,1.2,0.,1.2,,0.0,,0.0
1979-07-04 21:07:40.410 ,0,0,1.,1.2,0.,1.2,0.,1.2,,0.0,,0.0
1979-07-04 21:07:41.610 ,0,0,1.,1.2,0.,1.2,0.,1.2,,0.0,,0.0
1979-07-04 21:07:42.810 ,0,0,2.,1.2,1.,1.2,0.,1.2,,0.0,,0.0
1979-07-04 21:07:44.010 ,0,0,0.,1.2,0.,1.2,0.,1.2,,0.0,,0.0
1979-07-04 21:07:45.210 ,0,0,0.,1.2,0.,1.2,0.,1.2,,0.0,,0.0
1979-07-04 21:07:46.410 ,0,0,1.,1.2,1.,1.2,0.,1.2,,0.0,,0.0
1979-07-04 21:07:47.610 ,0,0,1.,1.2,0.,1.2,0.,1.2,,0.0,,0.0
1979-07-04 21:07:48.810 ,0,0,0.,1.2,0.,1.2,0.,1.2,,0.0,,0.0
1979-07-04 21:07:50.010 ,0,0,0.,1.2,0.,1.2,0.,1.2,,0.0,,0.0
1979-07-04 21:07:51.210 ,0,0,0.,1.2,0.,1.2,0.,1.2,,0.0,,0.0
1979-07-04 21:07:52.410 ,0,0,0.,1.2,0.,1.2,0.,1.2,,0.0,,0.0
1979-07-04 21:07:53.610 ,0,0,1.,1.2,0.,1.2,0.,1.2,,0.0,,0.0
1979-07-04 21:07:54.810 ,0,0,0.,1.2,0.,1.2,0.,1.2,,0.0,,0.0
1979-07-04 21:07:56.010 ,0,0,0.,1.2,0.,1.2,0.,1.2,,0.0,,0.0
1979-07-04 21:07:57.210 ,0,0,2.,1.2,0.,1.2,0.,1.2,,0.0,,0.0
1979-07-04 21:07:58.410 ,0,0,0.,1.2,0.,1.2,0.,1.2,,0.0,,0.0
1979-07-04 21:07:59.610 ,4,0,0.,1.2,0.,1.2,0.,1.2,,0.0,,0.0
1979-07-04 21:08:00.810 ,4,0,1.,1.2,1.,1.2,0.,1.2,,0.0,,0.0
1979-07-04 21:08:02.010 ,4,0,0.,1.2,0.,1.2,0.,1.2,,0.0,,0.0
1979-07-04 21:08:03.210 ,4,0,0.,1.2,0.,1.2,0.,1.2,,0.0,,0.0
1979-07-04 21:08:04.410 ,4,0,0.,1.2,0.,1.2,0.,1.2,,0.0,,0.0
1979-07-04 21:08:05.610 ,4,0,1.,1.2,0.,1.2,0.,1.2,,0.0,,0.0
1979-07-04 21:08:06.810 ,4,0,0.,1.2,0.,1.2,0.,1.2,,0.0,,0.0
1979-07-04 21:08:08.010 ,4,0,0.,1.2,0.,1.2,0.,1.2,,0.0,,0.0
1979-07-04 21:08:09.210 ,4,0,0.,1.2,0.,1.2,0.,1.2,,0.0,,0.0
1979-07-04 21:08:10.410 ,4,0,0.,1.2,0.,1.2,0.,1.2,,0.0,,0.0
1979-07-04 21:08:11.610 ,4,0,0.,1.2,0.,1.2,0.,1.2,,0.0,,0.0
1979-07-04 21:08:12.810 ,4,0,0.,1.2,0.,1.2,0.,1.2,,0.0,,0.0